,,Stat5,,Stat1,,Stat2,,Stat3,,Stat4,,Wind1,,Wind1,
time,status,PA1M_AVG,status,PR1M_SUM,status,RH1M_AVG,status,SR1M_AVG,status,TA1M_AVG,status,W1dAve1m,status,W1sAve1m,
2001-03-01, 00:00:01,VALID,919.09,VALID,0,VALID,98.5646,VALID,-0.0339617,VALID,19.7616,VALID,247,VALID,0.217665,
2001-03-01, 00:01:00,VALID,919.09,VALID,0,VALID,98.5697,VALID,-0.0679233,VALID,19.7487,VALID,248,VALID,0.203348,
2001-03-01, 00:02:00,VALID,919.082,VALID,0,VALID,98.5964,VALID,-0.0679233,VALID,19.739,VALID,249,VALID,0.128701,
2001-03-01, 00:03:00,VALID,919.084,VALID,0,VALID,98.5862,VALID,-0.0679233,VALID,19.7333,VALID,249,VALID,0.334498,
2001-03-01, 00:04:00,VALID,919.071,VALID,0,VALID,98.5481,VALID,-0.0849042,VALID,19.6975,VALID,249,VALID,0.391295,
2001-03-01, 00:05:00,VALID,919.056,VALID,0,VALID,98.5125,VALID,-0.0509425,VALID,19.659,VALID,249,VALID,0.344952,
2001-03-01, 00:06:00,VALID,919.041,VALID,0,VALID,98.5544,VALID,-0.0679233,VALID,19.6259,VALID,251,VALID,0.472128,
2001-03-01, 00:07:00,VALID,919.02,VALID,0,VALID,98.5608,VALID,-0.0849042,VALID,19.6204,VALID,231,VALID,0.472957,
2001-03-01, 00:08:00,VALID,919.015,VALID,0,VALID,98.5532,VALID,-0.0849042,VALID,19.5976,VALID,216,VALID,0.851974,
2001-03-01, 00:09:00,VALID,919.008,VALID,0,VALID,98.5989,VALID,-0.101885,VALID,19.5914,VALID,208,VALID,0.588141,
2001-03-01, 00:10:00,VALID,918.968,VALID,0,VALID,98.7159,VALID,-0.101885,VALID,19.6048,VALID,238,VALID,0.758224,
2001-03-01, 00:11:00,VALID,918.953,VALID,0,VALID,98.7655,VALID,-0.101885,VALID,19.6269,VALID,247,VALID,0.608774,
2001-03-01, 00:12:00,VALID,918.949,VALID,0,VALID,98.7999,VALID,-0.0849042,VALID,19.6528,VALID,253,VALID,0.326069,
2001-03-01, 00:13:00,VALID,918.958,VALID,0,VALID,98.7884,VALID,-0.0849042,VALID,19.6627,VALID,232,VALID,0.130208,
2001-03-01, 00:14:00,VALID,918.956,VALID,0,VALID,98.6473,VALID,-0.0339617,VALID,19.575,VALID,147,VALID,0.503084,
2001-03-01, 00:15:00,VALID,918.956,VALID,0,VALID,98.7007,VALID,-0.0509425,VALID,19.5593,VALID,162,VALID,0.666867,
2001-03-01, 00:16:00,VALID,918.955,VALID,0,VALID,98.8749,VALID,-0.0339617,VALID,19.6003,VALID,187,VALID,0.814762,
2001-03-01, 00:17:00,VALID,918.949,VALID,0,VALID,98.913,VALID,-0.0679233,VALID,19.6689,VALID,210,VALID,1.01062,
2001-03-01, 00:18:00,VALID,918.931,VALID,0,VALID,98.9461,VALID,0,VALID,19.7104,VALID,219,VALID,1.31003,
2001-03-01, 00:19:00,VALID,918.925,VALID,0,VALID,98.8482,VALID,-0.0679233,VALID,19.7072,VALID,211,VALID,1.09235,
2001-03-01, 00:20:00,VALID,918.925,VALID,0,VALID,98.7185,VALID,-0.0339617,VALID,19.6624,VALID,194,VALID,0.839021,
2001-03-01, 00:21:00,VALID,918.924,VALID,0,VALID,98.6981,VALID,-0.0509425,VALID,19.6135,VALID,179,VALID,1.04768,
2001-03-01, 00:22:00,VALID,918.929,VALID,0,VALID,98.6676,VALID,-0.0509425,VALID,19.5814,VALID,141,VALID,0.657484,
2001-03-01, 00:23:00,VALID,918.938,VALID,0,VALID,98.5799,VALID,-0.0679233,VALID,19.523,VALID,167,VALID,0.680889,
2001-03-01, 00:24:00,VALID,918.928,VALID,0,VALID,98.5748,VALID,-0.0849042,VALID,19.5044,VALID,177,VALID,0.736431,
2001-03-01, 00:25:00,VALID,918.912,VALID,0,VALID,98.5239,VALID,-0.0679233,VALID,19.4721,VALID,196,VALID,0.319511,
2001-03-01, 00:26:00,VALID,918.908,VALID,0,VALID,98.4769,VALID,-0.0849042,VALID,19.4301,VALID,205,VALID,0.0787418,
2001-03-01, 00:27:00,VALID,918.914,VALID,0,VALID,98.4947,VALID,-0.101885,VALID,19.3876,VALID,217,VALID,0.461939,
2001-03-01, 00:28:00,VALID,918.92,VALID,0,VALID,98.4845,VALID,-0.0339617,VALID,19.3685,VALID,221,VALID,0.352179,
2001-03-01, 00:29:00,VALID,918.936,VALID,0,VALID,98.515,VALID,-0.0339617,VALID,19.3426,VALID,192,VALID,0.482772,
2001-03-01, 00:30:00,VALID,918.948,VALID,0,VALID,98.585,VALID,-0.0679233,VALID,19.3461,VALID,165,VALID,0.638569,
2001-03-01, 00:31:00,VALID,918.949,VALID,0,VALID,98.6167,VALID,-0.0339617,VALID,19.3364,VALID,194,VALID,0.357372,
2001-03-01, 00:32:00,VALID,918.966,VALID,0,VALID,98.6562,VALID,-0.0679233,VALID,19.3237,VALID,204,VALID,0.340049,
2001-03-01, 00:33:00,VALID,918.969,VALID,0,VALID,98.7147,VALID,-0.0679233,VALID,19.3237,VALID,198,VALID,0.440705,
2001-03-01, 00:34:00,VALID,918.951,VALID,0,VALID,98.7185,VALID,-0.0679233,VALID,19.3106,VALID,157,VALID,0.571546,
2001-03-01, 00:35:00,VALID,918.96,VALID,0,VALID,98.688,VALID,-0.0339617,VALID,19.2813,VALID,177,VALID,0.0683093,
2001-03-01, 00:36:00,VALID,918.942,VALID,0,VALID,98.6867,VALID,-0.0339617,VALID,19.2455,VALID,188,VALID,0.69449,
2001-03-01, 00:37:00,VALID,918.94,VALID,0,VALID,98.735,VALID,-0.0509425,VALID,19.2363,VALID,192,VALID,0.13121,
2001-03-01, 00:38:00,VALID,918.933,VALID,0,VALID,98.7592,VALID,-0.0509425,VALID,19.2067,VALID,176,VALID,0.533306,
2001-03-01, 00:39:00,VALID,918.926,VALID,0,VALID,98.7833,VALID,-0.0509425,VALID,19.1975,VALID,183,VALID,0.684095,
2001-03-01, 00:40:00,VALID,918.927,VALID,0,VALID,98.7846,VALID,-0.0679233,VALID,19.1819,VALID,189,VALID,0.465666,
2001-03-01, 00:41:00,VALID,918.916,VALID,0,VALID,98.8139,VALID,-0.0679233,VALID,19.1585,VALID,149,VALID,0.643429,
2001-03-01, 00:42:00,VALID,918.916,VALID,0,VALID,98.7859,VALID,-0.0339617,VALID,19.1334,VALID,130,VALID,1.03927,
2001-03-01, 00:43:00,VALID,918.919,VALID,0,VALID,98.7274,VALID,-0.0679233,VALID,19.0487,VALID,124,VALID,1.16947,
2001-03-01, 00:44:00,VALID,918.916,VALID,0,VALID,98.7592,VALID,-0.0849042,VALID,19.0204,VALID,116,VALID,1.39926,
2001-03-01, 00:45:00,VALID,918.918,VALID,0,VALID,98.7299,VALID,-0.0679233,VALID,18.9587,VALID,122,VALID,1.58874,
2001-03-01, 00:46:00,VALID,918.915,VALID,0,VALID,98.7821,VALID,-0.0509425,VALID,18.9135,VALID,141,VALID,1.04749,
2001-03-01, 00:47:00,VALID,918.895,VALID,0,VALID,98.9664,VALID,-0.0849042,VALID,18.926,VALID,161,VALID,0.716947,
2001-03-01, 00:48:00,VALID,918.866,VALID,0,VALID,99.0224,VALID,-0.0509425,VALID,18.955,VALID,189,VALID,0.875411,
2001-03-01, 00:49:00,VALID,918.85,VALID,0,VALID,99.0605,VALID,-0.0509425,VALID,18.9876,VALID,189,VALID,0.645633,
2001-03-01, 00:50:00,VALID,918.829,VALID,0,VALID,99.0644,VALID,0.0169808,VALID,19.0062,VALID,171,VALID,0.636513,
2001-03-01, 00:51:00,VALID,918.82,VALID,0,VALID,99.0669,VALID,0,VALID,19.0189,VALID,132,VALID,0.471755,
2001-03-01, 00:52:00,VALID,918.801,VALID,0,VALID,99.0326,VALID,0.0169808,VALID,18.9896,VALID,132,VALID,0.488898,
2001-03-01, 00:53:00,VALID,918.802,VALID,0,VALID,99.002,VALID,0,VALID,18.964,VALID,136,VALID,0.571514,
2001-03-01, 00:54:00,VALID,918.782,VALID,0,VALID,99.002,VALID,0,VALID,18.9511,VALID,142,VALID,0.330181,
2001-03-01, 00:55:00,VALID,918.776,VALID,0,VALID,99.0427,VALID,0,VALID,18.9483,VALID,159,VALID,0.0394631,
2001-03-01, 00:56:00,VALID,918.754,VALID,0,VALID,99.0949,VALID,0.0169808,VALID,18.9541,VALID,192,VALID,0.384252,
2001-03-01, 00:57:00,VALID,918.747,VALID,0,VALID,99.0911,VALID,0.0169808,VALID,18.9804,VALID,162,VALID,0.593349,
2001-03-01, 00:58:00,VALID,918.755,VALID,0,VALID,99.0275,VALID,0.0169808,VALID,18.9253,VALID,133,VALID,1.0516,
2001-03-01, 00:59:00,VALID,918.74,VALID,0,VALID,99.0262,VALID,0,VALID,18.9024,VALID,148,VALID,0.498798,
2001-03-01, 01:00:00,VALID,918.723,VALID,0,VALID,98.9931,VALID,0,VALID,18.8964,VALID,139,VALID,0.799137,
2001-03-01, 01:01:00,VALID,918.713,VALID,0,VALID,98.894,VALID,0,VALID,18.7931,VALID,131,VALID,1.13401,
2001-03-01, 01:02:00,VALID,918.705,VALID,0,VALID,98.9588,VALID,0.0169808,VALID,18.7831,VALID,136,VALID,0.728207,
2001-03-01, 01:03:00,VALID,918.698,VALID,0,VALID,99.0491,VALID,0,VALID,18.8254,VALID,168,VALID,0.440505,
2001-03-01, 01:04:00,VALID,918.674,VALID,0,VALID,99.0949,VALID,0.0169808,VALID,18.8674,VALID,183,VALID,0.271998,
2001-03-01, 01:05:00,VALID,918.655,VALID,0,VALID,99.0822,VALID,0,VALID,18.8671,VALID,167,VALID,0.198117,
2001-03-01, 01:06:00,VALID,918.643,VALID,0,VALID,99.0211,VALID,0,VALID,18.8547,VALID,125,VALID,0.0805921,
2001-03-01, 01:07:00,VALID,918.622,VALID,0,VALID,98.8876,VALID,0,VALID,18.7511,VALID,126,VALID,0.00360577,
2001-03-01, 01:08:00,VALID,918.602,VALID,0,VALID,98.913,VALID,0,VALID,18.7287,VALID,163,VALID,0.313939,
2001-03-01, 01:09:00,VALID,918.585,VALID,0,VALID,98.9753,VALID,0,VALID,18.7509,VALID,165,VALID,0.434896,
2001-03-01, 01:10:00,VALID,918.568,VALID,0,VALID,98.9423,VALID,0.0169808,VALID,18.7377,VALID,155,VALID,0.34889,
2001-03-01, 01:11:00,VALID,918.574,VALID,0,VALID,98.8011,VALID,0.0339617,VALID,18.6669,VALID,111,VALID,0.759615,
2001-03-01, 01:12:00,VALID,918.564,VALID,0,VALID,98.604,VALID,0.0339617,VALID,18.5642,VALID,95,VALID,0.971012,
2001-03-01, 01:13:00,VALID,918.558,VALID,0,VALID,98.7083,VALID,0,VALID,18.5412,VALID,98,VALID,0.703926,
2001-03-01, 01:14:00,VALID,918.547,VALID,0,VALID,98.7922,VALID,0.0509425,VALID,18.5442,VALID,122,VALID,0.424342,
2001-03-01, 01:15:00,VALID,918.543,VALID,0,VALID,98.9321,VALID,0,VALID,18.5767,VALID,147,VALID,0.283654,
2001-03-01, 01:16:00,VALID,918.522,VALID,0,VALID,98.9944,VALID,0,VALID,18.6415,VALID,169,VALID,0,
2001-03-01, 01:17:00,VALID,918.525,VALID,0,VALID,99.0122,VALID,0.0169808,VALID,18.6835,VALID,142,VALID,0.429888,
2001-03-01, 01:18:00,VALID,918.518,VALID,0,VALID,98.66,VALID,0.0169808,VALID,18.5901,VALID,132,VALID,0.795641,
2001-03-01, 01:19:00,VALID,918.53,VALID,0,VALID,98.3383,VALID,0.0169808,VALID,18.4415,VALID,130,VALID,0.703726,
2001-03-01, 01:20:00,VALID,918.505,VALID,0,VALID,98.6651,VALID,0.0169808,VALID,18.4771,VALID,143,VALID,0.849095,
2001-03-01, 01:21:00,VALID,918.484,VALID,0,VALID,98.9423,VALID,0.0339617,VALID,18.5993,VALID,158,VALID,0.809295,
2001-03-01, 01:22:00,VALID,918.477,VALID,0,VALID,98.9334,VALID,0.0339617,VALID,18.6893,VALID,156,VALID,0.984169,
2001-03-01, 01:23:00,VALID,918.449,VALID,0,VALID,98.7846,VALID,0,VALID,18.7446,VALID,155,VALID,0.75,
2001-03-01, 01:24:00,VALID,918.443,VALID,0,VALID,98.6524,VALID,0,VALID,18.7737,VALID,151,VALID,0.82648,
2001-03-01, 01:25:00,VALID,918.418,VALID,0,VALID,98.4692,VALID,0.0509425,VALID,18.7769,VALID,146,VALID,0.927885,
2001-03-01, 01:26:00,VALID,918.412,VALID,0,VALID,98.3052,VALID,-0.0849042,VALID,18.7853,VALID,141,VALID,0.823191,
2001-03-01, 01:27:00,VALID,918.398,VALID,0,VALID,98.3434,VALID,-0.0679233,VALID,18.8238,VALID,154,VALID,0.80609,
2001-03-01, 01:28:00,VALID,918.411,VALID,0,VALID,98.3281,VALID,-0.0849042,VALID,18.86,VALID,172,VALID,0.80222,
2001-03-01, 01:29:00,VALID,918.399,VALID,0,VALID,98.192,VALID,-0.101885,VALID,18.8566,VALID,189,VALID,0.775441,
2001-03-01, 01:30:00,VALID,918.403,VALID,0,VALID,98.117,VALID,-0.0849042,VALID,18.8561,VALID,189,VALID,0.829975,
2001-03-01, 01:31:00,VALID,918.396,VALID,0,VALID,97.8118,VALID,-0.0679233,VALID,18.8499,VALID,189,VALID,0.382612,
2001-03-01, 01:32:00,VALID,918.402,VALID,0,VALID,97.457,VALID,-0.101885,VALID,18.7846,VALID,194,VALID,0.0483141,
2001-03-01, 01:33:00,VALID,918.395,VALID,0,VALID,97.5677,VALID,-0.101885,VALID,18.7661,VALID,200,VALID,0.207442,
2001-03-01, 01:34:00,VALID,918.365,VALID,0,VALID,97.7851,VALID,-0.101885,VALID,18.7788,VALID,205,VALID,0.409128,
2001-03-01, 01:35:00,VALID,918.372,VALID,0,VALID,97.7521,VALID,-0.0169808,VALID,18.7684,VALID,158,VALID,0.588742,
2001-03-01, 01:36:00,VALID,918.346,VALID,0,VALID,97.4939,VALID,0.0169808,VALID,18.713,VALID,148,VALID,0.452919,
2001-03-01, 01:37:00,VALID,918.336,VALID,0,VALID,97.7546,VALID,0.0169808,VALID,18.7061,VALID,166,VALID,0.54347,
2001-03-01, 01:38:00,VALID,918.337,VALID,0,VALID,97.9275,VALID,0.0679233,VALID,18.7257,VALID,167,VALID,0.633429,
2001-03-01, 01:39:00,VALID,918.339,VALID,0,VALID,97.9008,VALID,0.0509425,VALID,18.7451,VALID,167,VALID,0.748197,
2001-03-01, 01:40:00,VALID,918.341,VALID,0,VALID,97.9581,VALID,0.0679233,VALID,18.7513,VALID,161,VALID,0.875411,
2001-03-01, 01:41:00,VALID,918.347,VALID,0,VALID,98.2048,VALID,0.0679233,VALID,18.7938,VALID,176,VALID,0.716747,
2001-03-01, 01:42:00,VALID,918.338,VALID,0,VALID,98.2213,VALID,0.0339617,VALID,18.8095,VALID,190,VALID,0.424137,
2001-03-01, 01:43:00,VALID,918.328,VALID,0,VALID,98.2365,VALID,0.0169808,VALID,18.7968,VALID,203,VALID,0.492989,
2001-03-01, 01:44:00,VALID,918.326,VALID,0,VALID,98.2302,VALID,0.0339617,VALID,18.7802,VALID,202,VALID,0.104235,
2001-03-01, 01:45:00,VALID,918.317,VALID,0,VALID,98.1984,VALID,0.0849042,VALID,18.7742,VALID,202,VALID,0.0965545,
2001-03-01, 01:46:00,VALID,918.317,VALID,0,VALID,98.0191,VALID,0.0849042,VALID,18.7354,VALID,202,VALID,0.00205592,
2001-03-01, 01:47:00,VALID,918.306,VALID,0,VALID,98.0178,VALID,0.0509425,VALID,18.6872,VALID,185,VALID,0.202925,
2001-03-01, 01:48:00,VALID,918.31,VALID,0,VALID,98.0928,VALID,0.0169808,VALID,18.6674,VALID,153,VALID,0.662418,
2001-03-01, 01:49:00,VALID,918.292,VALID,0,VALID,98.1933,VALID,0.0509425,VALID,18.6708,VALID,153,VALID,0.805288,
2001-03-01, 01:50:00,VALID,918.284,VALID,0,VALID,98.2632,VALID,-0.0339617,VALID,18.6812,VALID,146,VALID,0.907689,
2001-03-01, 01:51:00,VALID,918.26,VALID,0,VALID,98.1869,VALID,-0.0849042,VALID,18.6653,VALID,155,VALID,0.767829,
2001-03-01, 01:52:00,VALID,918.25,VALID,0,VALID,98.0763,VALID,-0.0849042,VALID,18.6563,VALID,164,VALID,0.440173,
2001-03-01, 01:53:00,VALID,918.232,VALID,0,VALID,98.1145,VALID,-0.0679233,VALID,18.6395,VALID,169,VALID,0.516827,
2001-03-01, 01:54:00,VALID,918.217,VALID,0,VALID,97.9898,VALID,-0.0679233,VALID,18.6079,VALID,162,VALID,0.628495,
2001-03-01, 01:55:00,VALID,918.218,VALID,0,VALID,97.8919,VALID,-0.0679233,VALID,18.5659,VALID,142,VALID,0.64403,
2001-03-01, 01:56:00,VALID,918.199,VALID,0,VALID,97.8474,VALID,-0.0509425,VALID,18.517,VALID,141,VALID,0.590049,
2001-03-01, 01:57:00,VALID,918.204,VALID,0,VALID,98.0445,VALID,-0.0339617,VALID,18.5237,VALID,141,VALID,0.612981,
2001-03-01, 01:58:00,VALID,918.218,VALID,0,VALID,98.2531,VALID,-0.101885,VALID,18.5495,VALID,155,VALID,0.697574,
2001-03-01, 01:59:00,VALID,918.213,VALID,0,VALID,98.1615,VALID,-0.0849042,VALID,18.5433,VALID,142,VALID,0.86258,
2001-03-01, 02:00:00,VALID,918.202,VALID,0,VALID,97.9695,VALID,-0.0849042,VALID,18.4948,VALID,128,VALID,0.743421,
2001-03-01, 02:01:00,VALID,918.192,VALID,0,VALID,97.9225,VALID,-0.0849042,VALID,18.4826,VALID,125,VALID,0.778846,
2001-03-01, 02:02:00,VALID,918.186,VALID,0,VALID,97.4977,VALID,-0.101885,VALID,18.4173,VALID,117,VALID,0.909951,
2001-03-01, 02:03:00,VALID,918.165,VALID,0,VALID,97.5918,VALID,-0.0849042,VALID,18.3853,VALID,117,VALID,0.728566,
2001-03-01, 02:04:00,VALID,918.152,VALID,0,VALID,97.8093,VALID,-0.101885,VALID,18.3883,VALID,125,VALID,0.678043,
2001-03-01, 02:05:00,VALID,918.147,VALID,0,VALID,97.8678,VALID,-0.101885,VALID,18.4201,VALID,132,VALID,0.481771,
2001-03-01, 02:06:00,VALID,918.146,VALID,0,VALID,97.8029,VALID,-0.0849042,VALID,18.4392,VALID,132,VALID,0.337582,
2001-03-01, 02:07:00,VALID,918.152,VALID,0,VALID,97.6948,VALID,-0.0679233,VALID,18.4623,VALID,132,VALID,0.478566,
2001-03-01, 02:08:00,VALID,918.149,VALID,0,VALID,97.5015,VALID,-0.0509425,VALID,18.4718,VALID,132,VALID,0.468956,
2001-03-01, 02:09:00,VALID,918.137,VALID,0,VALID,97.513,VALID,-0.0509425,VALID,18.4944,VALID,134,VALID,0.572516,
2001-03-01, 02:10:00,VALID,918.124,VALID,0,VALID,97.4825,VALID,-0.0339617,VALID,18.5433,VALID,142,VALID,0.439145,
2001-03-01, 02:11:00,VALID,918.13,VALID,0,VALID,97.3566,VALID,-0.0679233,VALID,18.5885,VALID,153,VALID,0.309095,
2001-03-01, 02:12:00,VALID,918.114,VALID,0,VALID,97.0845,VALID,-0.0849042,VALID,18.6404,VALID,158,VALID,0.419408,
2001-03-01, 02:13:00,VALID,918.099,VALID,0,VALID,96.5657,VALID,-0.101885,VALID,18.6727,VALID,158,VALID,0.523037,
2001-03-01, 02:14:00,VALID,918.106,VALID,0,VALID,96.3902,VALID,-0.0849042,VALID,18.6817,VALID,162,VALID,0.494655,
2001-03-01, 02:15:00,VALID,918.093,VALID,0,VALID,96.2617,VALID,-0.0679233,VALID,18.7052,VALID,164,VALID,0.457532,
2001-03-01, 02:16:00,VALID,918.083,VALID,0,VALID,95.8764,VALID,-0.0679233,VALID,18.6789,VALID,150,VALID,0.399671,
2001-03-01, 02:17:00,VALID,918.084,VALID,0,VALID,95.6056,VALID,-0.101885,VALID,18.6402,VALID,150,VALID,0.363582,
2001-03-01, 02:18:00,VALID,918.082,VALID,0,VALID,94.8261,VALID,-0.0849042,VALID,18.5467,VALID,146,VALID,0.517887,
2001-03-01, 02:19:00,VALID,918.082,VALID,0,VALID,94.8782,VALID,-0.0679233,VALID,18.4175,VALID,130,VALID,0.651843,
2001-03-01, 02:20:00,VALID,918.102,VALID,0,VALID,95.1147,VALID,-0.0169808,VALID,18.2879,VALID,114,VALID,0.830592,
2001-03-01, 02:21:00,VALID,918.102,VALID,0,VALID,95.8942,VALID,0.0169808,VALID,18.206,VALID,114,VALID,0.741787,
2001-03-01, 02:22:00,VALID,918.108,VALID,0,VALID,95.9337,VALID,0.0339617,VALID,18.1191,VALID,104,VALID,0.668997,
2001-03-01, 02:23:00,VALID,918.111,VALID,0,VALID,96.4576,VALID,0.0339617,VALID,18.0545,VALID,85,VALID,0.958133,
2001-03-01, 02:24:00,VALID,918.111,VALID,0,VALID,97.354,VALID,0,VALID,18.096,VALID,76,VALID,0.69634,
2001-03-01, 02:25:00,VALID,918.113,VALID,0,VALID,97.6719,VALID,0.0339617,VALID,18.1645,VALID,73,VALID,0.586138,
2001-03-01, 02:26:00,VALID,918.109,VALID,0,VALID,97.8271,VALID,0.0339617,VALID,18.2286,VALID,67,VALID,0.726357,
2001-03-01, 02:27:00,VALID,918.119,VALID,0,VALID,97.883,VALID,0.0339617,VALID,18.3094,VALID,27,VALID,0.610176,
2001-03-01, 02:28:00,VALID,918.097,VALID,0,VALID,97.9161,VALID,0.0339617,VALID,18.361,VALID,338,VALID,0.511102,
2001-03-01, 02:29:00,VALID,918.103,VALID,0,VALID,98.0407,VALID,0.0339617,VALID,18.4328,VALID,336,VALID,0.452324,
2001-03-01, 02:30:00,VALID,918.087,VALID,0,VALID,98.1615,VALID,0.0339617,VALID,18.4708,VALID,2,VALID,0.551192,
2001-03-01, 02:31:00,VALID,918.073,VALID,0,VALID,98.2683,VALID,0.0339617,VALID,18.5227,VALID,350,VALID,0.574119,
2001-03-01, 02:32:00,VALID,918.053,VALID,0,VALID,98.3828,VALID,0.0509425,VALID,18.5585,VALID,339,VALID,0.211143,
2001-03-01, 02:33:00,VALID,918.054,VALID,0,VALID,98.4146,VALID,0.0339617,VALID,18.5615,VALID,309,VALID,0.18109,
2001-03-01, 02:34:00,VALID,918.047,VALID,0,VALID,98.3637,VALID,0,VALID,18.5488,VALID,329,VALID,0.17722,
2001-03-01, 02:35:00,VALID,918.054,VALID,0,VALID,97.8843,VALID,0.0339617,VALID,18.3998,VALID,325,VALID,0.0120192,
2001-03-01, 02:36:00,VALID,918.054,VALID,0,VALID,97.8423,VALID,0.0169808,VALID,18.3451,VALID,308,VALID,0,
2001-03-01, 02:37:00,VALID,918.064,VALID,0,VALID,97.691,VALID,0.0169808,VALID,18.2842,VALID,3,VALID,0.210537,
2001-03-01, 02:38:00,VALID,918.061,VALID,0,VALID,97.5117,VALID,0,VALID,18.2162,VALID,94,VALID,0.152344,
2001-03-01, 02:39:00,VALID,918.061,VALID,0,VALID,97.6618,VALID,0.0169808,VALID,18.2,VALID,90,VALID,0.0200321,
2001-03-01, 02:40:00,VALID,918.063,VALID,0,VALID,98.0394,VALID,0,VALID,18.2681,VALID,11,VALID,0.457854,
2001-03-01, 02:41:00,VALID,918.065,VALID,0,VALID,98.4603,VALID,0,VALID,18.4037,VALID,334,VALID,0.371795,
2001-03-01, 02:42:00,VALID,918.069,VALID,0,VALID,98.6193,VALID,0,VALID,18.4614,VALID,335,VALID,0.285362,
2001-03-01, 02:43:00,VALID,918.068,VALID,0,VALID,98.6905,VALID,0,VALID,18.5103,VALID,334,VALID,0.288662,
2001-03-01, 02:44:00,VALID,918.058,VALID,0,VALID,98.7452,VALID,0,VALID,18.5486,VALID,322,VALID,0.411184,
2001-03-01, 02:45:00,VALID,918.058,VALID,0,VALID,98.7821,VALID,0,VALID,18.5686,VALID,314,VALID,0.361178,
2001-03-01, 02:46:00,VALID,918.06,VALID,0,VALID,98.7833,VALID,-0.0169808,VALID,18.5716,VALID,307,VALID,0.24116,
2001-03-01, 02:47:00,VALID,918.051,VALID,0,VALID,98.7172,VALID,0,VALID,18.5456,VALID,269,VALID,0,
2001-03-01, 02:48:00,VALID,918.059,VALID,0,VALID,98.529,VALID,0.0169808,VALID,18.4517,VALID,242,VALID,0,
2001-03-01, 02:49:00,VALID,918.057,VALID,0,VALID,98.4324,VALID,0,VALID,18.3453,VALID,230,VALID,0,
2001-03-01, 02:50:00,VALID,918.054,VALID,0,VALID,98.3561,VALID,-0.0169808,VALID,18.2162,VALID,172,VALID,0,
2001-03-01, 02:51:00,VALID,918.049,VALID,0,VALID,98.5125,VALID,0.0169808,VALID,18.1772,VALID,169,VALID,0,
2001-03-01, 02:52:00,VALID,918.028,VALID,0,VALID,98.7795,VALID,0.0169808,VALID,18.2192,VALID,181,VALID,0,
2001-03-01, 02:53:00,VALID,918.009,VALID,0,VALID,98.8787,VALID,0,VALID,18.2874,VALID,203,VALID,0,
2001-03-01, 02:54:00,VALID,917.999,VALID,0,VALID,98.8876,VALID,-0.0169808,VALID,18.3262,VALID,203,VALID,0,
2001-03-01, 02:55:00,VALID,917.983,VALID,0,VALID,98.894,VALID,0.0169808,VALID,18.3287,VALID,203,VALID,0,
2001-03-01, 02:56:00,VALID,917.959,VALID,0,VALID,98.9423,VALID,0.0339617,VALID,18.355,VALID,203,VALID,0,
2001-03-01, 02:57:00,VALID,917.956,VALID,0,VALID,98.9499,VALID,0,VALID,18.3776,VALID,203,VALID,0,
2001-03-01, 02:58:00,VALID,917.938,VALID,0,VALID,98.9168,VALID,0,VALID,18.358,VALID,203,VALID,0,
2001-03-01, 02:59:00,VALID,917.936,VALID,0,VALID,98.9461,VALID,0,VALID,18.3645,VALID,203,VALID,0,
2001-03-01, 03:00:00,VALID,917.921,VALID,0,VALID,98.9423,VALID,0,VALID,18.3871,VALID,202,VALID,0,
2001-03-01, 03:01:00,VALID,917.914,VALID,0,VALID,98.8889,VALID,0,VALID,18.3841,VALID,201,VALID,0,
2001-03-01, 03:02:00,VALID,917.914,VALID,0,VALID,98.8812,VALID,0,VALID,18.3975,VALID,192,VALID,0,
2001-03-01, 03:03:00,VALID,917.894,VALID,0,VALID,98.7808,VALID,0,VALID,18.4293,VALID,184,VALID,0,
2001-03-01, 03:04:00,VALID,917.87,VALID,0,VALID,98.5646,VALID,0,VALID,18.4496,VALID,168,VALID,0,
2001-03-01, 03:05:00,VALID,917.859,VALID,0,VALID,98.4082,VALID,0.0339617,VALID,18.4194,VALID,160,VALID,0,
2001-03-01, 03:06:00,VALID,917.834,VALID,0,VALID,98.2772,VALID,0.101885,VALID,18.412,VALID,160,VALID,0,
2001-03-01, 03:07:00,VALID,917.82,VALID,0,VALID,98.2022,VALID,0.101885,VALID,18.3954,VALID,156,VALID,0,
2001-03-01, 03:08:00,VALID,917.803,VALID,0,VALID,98.1882,VALID,0.101885,VALID,18.4503,VALID,161,VALID,0,
2001-03-01, 03:09:00,VALID,917.799,VALID,0,VALID,98.0229,VALID,0.118866,VALID,18.502,VALID,170,VALID,0.144832,
2001-03-01, 03:10:00,VALID,917.768,VALID,0,VALID,97.747,VALID,0.118866,VALID,18.5569,VALID,177,VALID,1.08964,
2001-03-01, 03:11:00,VALID,917.772,VALID,0,VALID,97.4558,VALID,0.101885,VALID,18.5765,VALID,197,VALID,0.704327,
2001-03-01, 03:12:00,VALID,917.767,VALID,0,VALID,97.2485,VALID,0.118866,VALID,18.57,VALID,191,VALID,0.664885,
2001-03-01, 03:13:00,VALID,917.789,VALID,0,VALID,97.1697,VALID,0.0849042,VALID,18.5635,VALID,188,VALID,1.04187,
2001-03-01, 03:14:00,VALID,917.801,VALID,0,VALID,97.0018,VALID,0.118866,VALID,18.5506,VALID,167,VALID,0.815378,
2001-03-01, 03:15:00,VALID,917.81,VALID,0,VALID,96.895,VALID,0.101885,VALID,18.5253,VALID,169,VALID,0.69391,
2001-03-01, 03:16:00,VALID,917.816,VALID,0,VALID,97.0374,VALID,0.0849042,VALID,18.502,VALID,186,VALID,0.607319,
2001-03-01, 03:17:00,VALID,917.826,VALID,0,VALID,97.251,VALID,0.101885,VALID,18.4895,VALID,193,VALID,0.538862,
2001-03-01, 03:18:00,VALID,917.82,VALID,0,VALID,97.4189,VALID,0.118866,VALID,18.4863,VALID,192,VALID,0.486842,
2001-03-01, 03:19:00,VALID,917.837,VALID,0,VALID,97.4075,VALID,0.101885,VALID,18.4533,VALID,188,VALID,0.0811298,
2001-03-01, 03:20:00,VALID,917.846,VALID,0,VALID,97.3579,VALID,0.0679233,VALID,18.4222,VALID,188,VALID,0.301809,
2001-03-01, 03:21:00,VALID,917.859,VALID,0,VALID,97.452,VALID,0,VALID,18.3972,VALID,195,VALID,0.65645,
2001-03-01, 03:22:00,VALID,917.866,VALID,0,VALID,97.5791,VALID,0,VALID,18.3781,VALID,219,VALID,0.47759,
2001-03-01, 03:23:00,VALID,917.878,VALID,0,VALID,97.8245,VALID,0,VALID,18.3615,VALID,224,VALID,0.378606,
2001-03-01, 03:24:00,VALID,917.889,VALID,0,VALID,97.953,VALID,0,VALID,18.3613,VALID,222,VALID,0.0684622,
2001-03-01, 03:25:00,VALID,917.878,VALID,0,VALID,98.0407,VALID,-0.0169808,VALID,18.3583,VALID,220,VALID,0.000801282,
2001-03-01, 03:26:00,VALID,917.877,VALID,0,VALID,98.1259,VALID,0,VALID,18.3615,VALID,220,VALID,0.0828536,
2001-03-01, 03:27:00,VALID,917.882,VALID,0,VALID,98.2238,VALID,0,VALID,18.3617,VALID,220,VALID,0,
2001-03-01, 03:28:00,VALID,917.877,VALID,0,VALID,98.2989,VALID,0,VALID,18.3451,VALID,220,VALID,0,
2001-03-01, 03:29:00,VALID,917.861,VALID,0,VALID,98.3599,VALID,0,VALID,18.3617,VALID,220,VALID,0,
2001-03-01, 03:30:00,VALID,917.873,VALID,0,VALID,98.4158,VALID,-0.0169808,VALID,18.3583,VALID,222,VALID,0.331209,
2001-03-01, 03:31:00,VALID,917.878,VALID,0,VALID,98.4298,VALID,0,VALID,18.355,VALID,218,VALID,0.712139,
2001-03-01, 03:32:00,VALID,917.887,VALID,0,VALID,98.468,VALID,-0.0169808,VALID,18.352,VALID,228,VALID,0.741982,
2001-03-01, 03:33:00,VALID,917.887,VALID,0,VALID,98.5722,VALID,0,VALID,18.3516,VALID,224,VALID,0.807292,